Wind_Speed
2 2 2 2 2 2 2 3 4 5 5 6 6 6 7 7 7 7 7 7 7 6 6 6 6 6 6 6 6 6 6 6 6 6 6 6 5 6 6 7 8 7 8
1 1 1 1 1 1 1 2 3 4 5 6 6 6 6 6 7 7 7 7 7 7 6 6 6 6 5 5 5 5 5 5 5 5 5 5 5 5 5 6 7 7 7
1 1 0 0 0 0 0 1 2 4 5 6 6 6 7 7 7 7 7 7 7 7 7 7 6 6 5 5 5 5 4 4 4 4 4 4 4 4 5 5 6 6 6
2 2 1 1 1 1 1 2 3 3 5 5 6 7 7 7 7 7 8 8 8 8 8 8 8 7 6 6 5 5 4 4 4 3 3 3 2 3 3 4 5 6 6
3 2 2 2 2 2 2 3 4 4 5 6 6 7 7 8 8 8 8 9 9 9 9 9 9 8 8 7 6 6 5 4 4 3 2 1 1 1 2 3 4 5 5
3 3 4 4 4 3 3 4 5 5 6 6 7 8 7 8 8 9 9 10 11 11 10 10 10 10 9 8 8 7 6 6 5 4 3 2 1 1 2 3 4 4 5
4 4 4 4 5 4 4 5 6 6 6 7 7 8 8 8 9 10 10 11 12 12 12 12 12 12 11 10 9 8 7 7 6 6 5 4 3 3 3 3 4 4 5
5 5 5 5 4 4 5 6 7 7 8 8 8 9 10 10 11 11 12 12 13 13 14 14 14 14 13 11 10 10 9 8 8 7 8 7 6 6 5 5 5 5 5
7 6 5 5 4 5 5 6 7 8 9 10 11 11 12 12 13 13 14 14 14 15 15 16 16 16 15 14 13 12 11 10 10 10 10 10 9 8 8 7 7 7 6
7 7 6 5 4 5 6 7 8 10 11 12 12 13 13 13 14 15 15 16 16 16 16 17 17 17 17 16 15 14 13 12 12 12 12 12 12 11 10 10 9 9 8
8 7 5 4 5 6 7 8 9 10 11 13 14 14 14 15 16 17 17 17 17 17 18 18 18 19 19 18 18 16 15 14 14 15 15 14 14 13 13 12 12 11 11
9 7 5 5 5 7 8 9 10 12 13 14 14 15 15 16 17 17 18 18 18 18 18 19 19 19 20 20 19 18 17 15 15 15 16 17 16 16 15 15 15 14 14
9 7 5 5 7 8 9 10 12 14 15 16 16 16 16 16 16 17 18 18 19 19 19 18 19 19 20 21 21 21 20 19 18 17 17 18 18 17 17 18 17 17 16
9 7 6 7 8 9 10 11 13 14 16 16 16 16 16 16 15 16 17 16 17 18 18 18 19 19 19 20 22 22 22 22 21 20 19 20 20 19 20 19 18 18 18
9 8 9 9 10 10 12 12 13 14 15 15 15 15 15 15 15 15 16 16 17 18 17 17 17 17 18 19 21 21 21 22 22 22 21 20 20 20 20 20 21 21 20
9 8 8 8 9 10 11 11 12 13 14 14 15 14 14 15 15 14 15 15 16 17 17 17 17 17 18 19 20 21 22 23 23 23 24 23 22 21 21 21 21 22 22
8 8 8 8 9 10 11 11 12 13 14 14 14 14 14 14 14 14 14 14 14 15 16 17 17 18 18 19 20 21 21 22 23 23 24 24 24 24 24 24 22 23 24
7 7 7 8 9 10 12 12 12 12 13 13 13 13 13 13 13 13 14 14 14 15 16 17 17 18 19 20 21 21 21 22 22 22 23 24 24 25 25 24 24 24 25
6 5 6 8 10 11 12 12 11 11 12 12 12 12 12 12 13 13 14 14 15 16 17 17 18 19 19 20 21 21 22 22 22 22 23 24 24 25 25 24 25 25 26
5 5 7 9 9 10 10 10 10 10 11 12 12 12 13 13 13 13 13 14 15 16 16 17 18 18 19 20 20 21 22 23 23 23 24 25 25 25 25 25 26 27 28
4 5 6 7 7 8 8 8 9 10 10 10 10 11 12 12 13 13 14 14 15 16 16 17 18 18 19 19 20 21 22 23 24 25 25 26 26 26 27 27 27 28 29
3 5 5 6 6 7 8 8 9 9 10 10 10 11 12 13 13 13 14 14 15 15 16 17 18 18 18 19 19 21 22 24 24 25 26 27 28 28 29 29 29 29 30
3 4 5 6 6 7 7 8 9 9 9 10 10 11 12 12 12 13 14 15 15 16 17 17 18 19 20 20 20 21 22 23 25 26 26 27 28 29 30 31 31 31 31
3 3 4 5 6 6 6 7 8 9 9 10 10 11 12 12 13 14 16 16 17 18 19 19 20 21 22 23 23 24 24 24 25 26 27 28 28 30 31 32 32 33 33
2 3 4 4 4 5 6 7 8 9 10 11 11 12 12 14 15 17 18 19 20 21 22 22 23 23 24 25 26 27 27 27 28 28 29 30 30 30 31 32 34 34 34
1 2 2 3 4 5 7 8 8 9 10 11 12 13 15 16 17 19 20 21 22 23 24 24 25 26 27 27 28 29 30 31 31 30 31 32 32 33 33 33 34 35 36
Wind_Direction
66 65 67 58 52 50 45 33 14 4 357 355 355 354 354 355 357 360 0 1 1 3 6 10 15 19 26 30 31 36 44 52 56 63 72 78 85 91 97 100 102 102 101
136 79 76 58 34 47 34 14 354 347 340 339 340 338 338 339 344 348 350 350 349 346 346 349 355 359 5 13 19 23 30 39 50 58 67 76 83 91 101 105 103 103 101
191 183 211 244 259 270 332 322 322 324 324 325 325 323 324 324 327 333 337 338 336 333 330 330 334 339 344 349 357 5 13 17 28 40 54 67 78 89 102 110 109 108 105
222 219 230 244 257 270 284 290 296 301 305 308 310 312 315 314 312 316 321 322 322 320 319 319 319 320 325 329 332 339 347 355 1 9 27 52 74 92 103 115 117 117 114
240 236 240 251 257 262 276 281 283 290 296 299 300 304 307 310 307 304 310 312 312 311 309 309 309 309 311 315 316 316 316 320 328 333 341 15 65 105 118 131 131 129 127
235 241 244 253 256 255 266 279 283 287 292 294 295 296 299 302 304 301 302 303 303 302 302 301 301 303 305 306 306 306 302 299 300 301 299 294 263 217 170 159 152 146 143
232 238 245 252 253 259 271 282 287 290 293 294 292 291 292 292 294 294 294 294 295 294 294 294 295 296 298 299 297 296 294 288 283 281 277 268 250 235 213 192 180 169 161
226 227 236 247 250 263 275 285 290 293 293 291 290 288 288 288 287 287 288 288 288 289 288 288 289 289 289 290 289 286 285 280 272 268 266 260 249 239 227 212 200 193 183
226 215 218 239 254 271 285 293 295 296 297 293 289 288 286 286 286 285 285 286 285 285 287 284 282 283 283 282 281 279 277 272 268 264 261 256 251 244 235 225 213 205 201
213 220 222 227 251 272 291 297 297 296 297 295 292 289 288 287 286 285 283 283 282 282 284 281 277 277 277 277 277 276 273 268 266 264 261 257 251 242 240 234 225 215 209
212 218 233 253 255 276 291 296 298 299 299 298 295 292 289 288 287 285 281 281 279 278 279 278 273 270 271 273 275 275 272 267 264 262 261 259 254 246 241 237 233 226 219
214 219 238 259 277 287 291 296 300 298 298 298 296 295 293 290 288 286 282 281 280 278 278 275 271 269 267 268 270 271 270 269 266 261 259 259 255 250 245 239 237 233 226
216 223 242 264 287 296 296 295 298 297 297 296 297 296 292 290 289 287 287 285 282 280 279 278 272 270 268 266 267 268 268 269 264 260 259 257 255 252 247 243 240 234 230
222 236 256 278 288 294 295 293 294 296 296 297 295 294 293 292 290 289 290 289 285 284 279 279 274 270 269 267 266 267 268 269 266 261 259 258 254 251 247 243 239 236 232
230 243 255 270 280 286 289 292 295 296 295 295 294 295 294 291 288 286 289 288 286 284 280 279 275 271 269 268 268 267 267 268 269 264 260 258 255 254 251 247 242 240 237
233 245 256 269 276 286 292 294 295 293 291 291 294 296 295 293 290 289 290 291 286 281 280 279 278 272 272 271 267 267 266 266 267 262 259 259 256 253 252 248 243 242 239
229 243 259 276 284 294 301 299 298 296 295 295 295 297 296 295 293 291 291 293 290 283 281 279 278 276 274 271 269 269 269 267 264 262 260 258 256 251 251 250 246 244 241
223 244 271 287 295 301 307 306 305 303 303 302 300 299 297 296 293 295 292 291 289 285 281 280 278 277 275 272 270 270 270 268 264 261 259 257 255 252 251 248 248 245 242
239 252 276 290 298 302 308 310 310 309 308 307 305 303 302 302 299 297 294 293 290 286 284 282 279 278 275 272 270 269 267 266 264 262 261 258 255 252 250 249 248 245 243
252 270 282 291 295 299 306 310 312 312 309 309 308 306 304 304 304 300 296 294 291 288 287 285 282 279 277 274 271 268 266 265 264 262 261 258 254 252 251 250 247 246 244
257 279 292 296 300 301 306 313 318 320 318 314 309 307 307 306 305 302 299 297 294 292 291 289 286 284 280 276 273 270 268 266 264 263 261 258 255 253 251 249 249 247 245
275 290 294 296 302 310 315 319 322 320 318 317 316 315 313 311 311 309 308 305 302 298 294 292 291 289 286 282 277 273 270 268 266 264 261 259 257 254 252 250 249 248 245
283 294 298 301 304 314 319 323 324 323 323 322 322 321 319 319 318 315 313 311 309 305 301 297 295 292 289 286 282 278 274 271 269 266 263 260 257 254 253 252 250 249 247
278 293 306 313 315 320 327 329 331 334 335 333 331 328 326 325 323 320 316 313 311 309 306 302 299 294 291 288 284 281 277 274 272 269 266 262 258 255 253 251 250 248 246
280 308 322 320 321 328 336 339 341 342 341 339 337 335 333 330 326 322 319 316 313 310 307 303 299 296 292 289 286 283 279 276 273 270 269 265 261 258 255 252 250 248 246
303 334 343 344 345 346 346 346 345 343 341 341 342 340 338 334 329 326 323 319 315 311 307 304 301 298 294 290 287 284 280 277 274 271 268 266 263 259 256 254 251 249 247
Height
5913 5912 5912 5913 5913 5913 5913 5913 5913 5913 5913 5913 5912 5912 5912 5911 5910 5910 5909 5908 5908 5908 5907 5907 5906 5906 5905 5905 5905 5904 5904 5903 5903 5902 5902 5901 5901 5901 5900 5901 5901 5901 5901
5912 5912 5913 5913 5913 5913 5913 5913 5913 5913 5913 5912 5912 5912 5911 5911 5910 5910 5909 5908 5908 5908 5907 5907 5906 5906 5906 5905 5905 5905 5904 5904 5903 5903 5903 5902 5902 5901 5901 5901 5902 5902 5902
5912 5912 5912 5913 5913 5913 5913 5913 5913 5913 5912 5912 5911 5911 5911 5910 5910 5910 5909 5908 5908 5907 5907 5906 5906 5906 5906 5905 5905 5905 5904 5904 5904 5904 5903 5903 5902 5902 5902 5902 5902 5903 5903
5912 5912 5912 5912 5912 5913 5913 5912 5912 5912 5912 5911 5911 5910 5910 5910 5909 5909 5908 5908 5907 5907 5906 5906 5906 5905 5905 5905 5905 5904 5904 5904 5904 5904 5904 5903 5903 5903 5903 5903 5903 5903 5904
5911 5911 5911 5911 5912 5912 5912 5912 5911 5911 5911 5910 5910 5910 5909 5909 5908 5908 5907 5907 5906 5906 5905 5905 5905 5905 5905 5904 5904 5904 5904 5904 5904 5904 5904 5904 5904 5904 5903 5904 5904 5904 5904
5910 5910 5910 5910 5911 5911 5910 5910 5910 5910 5909 5909 5908 5908 5908 5907 5907 5907 5906 5906 5905 5905 5904 5904 5904 5904 5904 5904 5903 5903 5903 5903 5903 5903 5904 5904 5904 5904 5904 5904 5904 5904 5905
5909 5909 5909 5909 5909 5909 5909 5908 5908 5908 5907 5907 5907 5906 5906 5905 5905 5905 5904 5904 5903 5903 5903 5902 5902 5902 5902 5902 5902 5902 5902 5902 5903 5903 5903 5903 5903 5903 5904 5904 5904 5905 5905
5906 5906 5907 5907 5907 5907 5907 5907 5906 5906 5905 5905 5905 5904 5904 5903 5903 5902 5902 5902 5901 5901 5901 5900 5900 5900 5900 5900 5900 5900 5900 5900 5901 5901 5901 5902 5902 5902 5903 5903 5904 5905 5905
5903 5903 5903 5905 5905 5905 5905 5905 5904 5904 5903 5903 5902 5901 5901 5900 5900 5900 5900 5899 5898 5898 5898 5897 5897 5897 5897 5897 5897 5898 5898 5898 5899 5899 5899 5900 5901 5901 5902 5902 5903 5904 5904
5901 5901 5901 5901 5902 5902 5902 5902 5902 5901 5901 5900 5899 5899 5898 5898 5897 5896 5896 5895 5895 5895 5894 5894 5894 5894 5894 5894 5894 5894 5895 5896 5896 5897 5897 5898 5899 5899 5900 5901 5902 5902 5903
5897 5898 5899 5899 5900 5900 5900 5900 5899 5899 5898 5897 5896 5895 5895 5894 5894 5893 5892 5891 5891 5891 5891 5890 5890 5890 5890 5890 5891 5891 5892 5893 5894 5894 5894 5895 5896 5897 5898 5899 5900 5900 5901
5894 5895 5897 5897 5898 5898 5898 5897 5897 5896 5895 5894 5893 5892 5891 5891 5890 5889 5888 5887 5887 5887 5887 5886 5886 5886 5886 5887 5887 5887 5888 5889 5890 5890 5891 5892 5892 5893 5894 5895 5897 5898 5899
5891 5892 5894 5894 5895 5895 5895 5894 5894 5893 5892 5890 5889 5888 5887 5886 5886 5885 5884 5883 5883 5883 5883 5883 5882 5882 5882 5883 5883 5883 5883 5884 5885 5886 5887 5888 5888 5889 5890 5892 5893 5894 5896
5887 5890 5891 5891 5892 5892 5891 5891 5891 5890 5888 5887 5886 5884 5884 5883 5882 5881 5880 5879 5879 5879 5879 5879 5878 5878 5878 5879 5878 5879 5879 5879 5881 5882 5883 5883 5884 5885 5886 5887 5889 5891 5892
5886 5887 5888 5889 5889 5889 5889 5888 5888 5887 5885 5884 5883 5881 5880 5879 5878 5878 5877 5876 5875 5875 5875 5875 5874 5874 5874 5874 5874 5874 5874 5874 5875 5877 5878 5878 5879 5880 5881 5883 5885 5887 5888
5883 5884 5885 5886 5886 5886 5885 5885 5884 5883 5882 5881 5880 5878 5876 5875 5874 5874 5873 5872 5872 5872 5871 5871 5871 5871 5870 5870 5870 5869 5869 5869 5870 5871 5873 5874 5875 5876 5877 5879 5880 5882 5883
5880 5881 5882 5882 5881 5882 5882 5881 5881 5880 5878 5877 5876 5875 5873 5872 5871 5870 5870 5869 5868 5868 5868 5867 5867 5867 5866 5866 5865 5865 5865 5864 5865 5866 5867 5869 5870 5871 5872 5874 5875 5877 5878
5876 5878 5879 5880 5879 5879 5879 5878 5877 5876 5875 5874 5873 5872 5870 5868 5867 5867 5866 5865 5864 5864 5864 5863 5863 5862 5862 5861 5861 5861 5860 5859 5860 5861 5861 5863 5864 5866 5867 5868 5870 5871 5873
5874 5875 5877 5877 5877 5876 5876 5875 5874 5873 5872 5870 5869 5868 5867 5865 5864 5863 5862 5861 5860 5860 5859 5859 5858 5858 5857 5856 5856 5856 5855 5855 5855 5855 5856 5857 5858 5859 5861 5863 5864 5866 5868
5872 5874 5875 5875 5874 5874 5873 5872 5872 5871 5869 5868 5866 5865 5863 5862 5861 5859 5858 5857 5857 5856 5855 5854 5853 5853 5852 5851 5851 5850 5850 5850 5850 5850 5850 5851 5852 5853 5855 5856 5858 5860 5862
5871 5872 5873 5872 5872 5872 5871 5871 5869 5868 5867 5865 5864 5862 5860 5859 5858 5856 5855 5854 5853 5852 5851 5850 5849 5848 5846 5846 5845 5845 5844 5844 5844 5844 5845 5845 5846 5847 5848 5850 5852 5853 5856
5869 5870 5870 5870 5870 5870 5869 5868 5867 5866 5864 5863 5861 5859 5858 5856 5854 5853 5851 5850 5849 5848 5846 5845 5844 5842 5841 5841 5840 5840 5839 5839 5838 5838 5838 5839 5839 5840 5841 5843 5844 5846 5848
5867 5868 5868 5868 5868 5868 5867 5865 5865 5863 5862 5860 5858 5857 5855 5853 5851 5850 5848 5846 5845 5843 5842 5840 5839 5837 5836 5835 5834 5834 5833 5832 5832 5832 5831 5832 5832 5833 5834 5835 5837 5838 5841
5866 5866 5866 5866 5866 5865 5864 5863 5862 5861 5859 5858 5856 5854 5852 5850 5848 5846 5845 5842 5841 5839 5837 5835 5833 5832 5830 5829 5828 5827 5827 5826 5825 5824 5824 5824 5825 5825 5826 5827 5829 5830 5832
5864 5864 5864 5864 5864 5863 5862 5861 5860 5858 5857 5855 5854 5852 5850 5848 5845 5843 5840 5838 5836 5834 5831 5829 5827 5826 5824 5822 5820 5819 5819 5818 5817 5817 5816 5816 5817 5817 5818 5819 5820 5822 5824
5862 5862 5862 5862 5861 5861 5859 5858 5857 5856 5855 5853 5851 5849 5847 5844 5841 5839 5836 5833 5831 5828 5826 5823 5821 5818 5816 5814 5813 5811 5810 5809 5808 5808 5808 5807 5807 5808 5809 5810 5811 5812 5814